Osceola Municipal, IA

6:53 AM CST on November 18, 2017 (GMT -0600)
Osceola Municipal

Weather History for KI75 - November, 2012

Change the Weather History Date:

Wednesday, November 14, 2012

  Actual Average (KCNC) Record (KCNC)
Temperature  
Mean Temperature 46 °F -  
Max Temperature 57 °F 48 °F 75 °F (1964)
Min Temperature 36 °F 27 °F 4 °F (1959)
Degree Days  
Heating Degree Days 18    
Moisture  
Dew Point 29 °F    
Average Humidity 54    
Maximum Humidity 81    
Minimum Humidity 26    
Precipitation  
Precipitation 0.00 in - - ()
Sea Level Pressure  
Sea Level Pressure 30.31 in    
Wind  
Wind Speed 9 mph (South)    
Max Wind Speed 16 mph    
Max Gust Speed 21 mph    
Visibility 10 miles    
Events      
Averages and records for this station are not official NWS values.
T = Trace of Precipitation, MM = Missing Value Source: NWS Daily Summary

Daily Weather History Graph

Daily Weather History Graph

Search for Another Location

Airport or City:

Trip Planner

Search our weather history database for the weather conditions in past years. The results will help you decide how hot, cold, wet, or windy it might be!

Date:

Astronomy

Nov. 14, 2012 Rise Set
Actual Time 7:01 AM CST 4:56 PM CST
Civil Twilight 6:32 AM CST 5:25 PM CST
Nautical Twilight 5:59 AM CST 5:59 PM CST
Astronomical Twilight 5:26 AM CST 6:31 PM CST
Moon 7:52 AM CST (11/14) 5:45 PM CST (11/14)
Length of Visible Light 10h 53m
Length of Day
9h 54m
New Moon, 1% of the Moon is Illuminated
Nov 14
New Moon
Nov 20
First Quarter
Nov 28
Full
Dec 6
Last Quarter
Dec 13
New

Hourly Weather History & Observations

Time (CST) Temp. Windchill Dew Point Humidity Pressure Visibility Wind Dir Wind Speed Gust Speed Precip Events Conditions
12:15 AM 41.9 °F 35.4 °F 32.0 °F 68% 30.34 in 10.0 mi South 11.5 mph - N/A   Scattered Clouds
12:35 AM 41.9 °F 35.4 °F 32.0 °F 68% 30.33 in 10.0 mi SSE 11.5 mph - N/A   Scattered Clouds
12:55 AM 41.9 °F 38.2 °F 32.2 °F 68% 30.34 in 10.0 mi SSW 5.8 mph - N/A   Scattered Clouds
1:15 AM 41.5 °F 37.8 °F 32.2 °F 69% 30.34 in 10.0 mi South 5.8 mph - N/A   Clear
1:35 AM 41.2 °F 37.3 °F 32.2 °F 70% 30.34 in 10.0 mi South 5.8 mph - N/A   Clear
1:55 AM 41.0 °F 37.1 °F 32.2 °F 71% 30.35 in 10.0 mi South 5.8 mph - N/A   Scattered Clouds
2:15 AM 41.0 °F 37.1 °F 32.4 °F 71% 30.35 in 10.0 mi South 5.8 mph - N/A   Scattered Clouds
2:35 AM 40.3 °F 36.3 °F 32.4 °F 73% 30.35 in 10.0 mi South 5.8 mph - N/A   Clear
2:55 AM 40.3 °F 37.1 °F 32.2 °F 73% 30.35 in 10.0 mi South 4.6 mph - N/A   Clear
3:15 AM 40.3 °F 36.3 °F 32.2 °F 73% 30.34 in 10.0 mi South 5.8 mph - N/A   Clear
3:35 AM 40.5 °F 35.8 °F 32.4 °F 73% 30.34 in 10.0 mi South 6.9 mph - N/A   Clear
3:55 AM 40.5 °F 35.1 °F 32.4 °F 73% 30.35 in 10.0 mi SSE 8.1 mph - N/A   Clear
4:15 AM 40.1 °F 34.7 °F 32.5 °F 74% 30.34 in 10.0 mi SSE 8.1 mph - N/A   Clear
4:35 AM 39.9 °F 34.5 °F 32.4 °F 74% 30.34 in 10.0 mi SSE 8.1 mph - N/A   Clear
4:55 AM 39.7 °F 34.3 °F 32.2 °F 74% 30.35 in 10.0 mi SSE 8.1 mph - N/A   Scattered Clouds
5:15 AM 39.2 °F 34.2 °F 32.0 °F 75% 30.35 in 10.0 mi South 6.9 mph - N/A   Scattered Clouds
5:35 AM 39.0 °F 33.4 °F 32.0 °F 76% 30.35 in 10.0 mi South 8.1 mph - N/A   Clear
5:55 AM 39.2 °F 33.0 °F 32.0 °F 75% 30.35 in 10.0 mi South 9.2 mph - N/A   Clear
6:15 AM 38.5 °F 32.1 °F 32.0 °F 78% 30.34 in 10.0 mi South 9.2 mph - N/A   Clear
6:35 AM 37.6 °F 32.3 °F 31.5 °F 79% 30.35 in 10.0 mi South 6.9 mph - N/A   Clear
6:55 AM 37.2 °F 31.9 °F 31.1 °F 79% 30.35 in 10.0 mi South 6.9 mph - N/A   Clear
7:15 AM 36.5 °F 31.0 °F 31.1 °F 81% 30.35 in 10.0 mi South 6.9 mph - N/A   Clear
7:35 AM 37.2 °F 31.9 °F 31.5 °F 80% 30.35 in 10.0 mi South 6.9 mph - N/A   Clear
7:55 AM 38.5 °F 33.4 °F 32.0 °F 78% 30.36 in 10.0 mi South 6.9 mph - N/A   Clear
8:15 AM 40.5 °F 34.6 °F 32.0 °F 72% 30.36 in 10.0 mi South 9.2 mph - N/A   Clear
8:35 AM 42.4 °F 37.0 °F 32.0 °F 67% 30.36 in 10.0 mi South 9.2 mph - N/A   Clear
8:55 AM 44.8 °F 39.0 °F 31.8 °F 60% 30.36 in 10.0 mi SSW 11.5 mph - N/A   Clear
9:15 AM 45.7 °F 40.6 °F 31.8 °F 58% 30.36 in 10.0 mi South 10.4 mph - N/A   Clear
9:35 AM 47.8 °F - 31.8 °F 54% 30.36 in 10.0 mi SSW 11.5 mph - N/A   Clear
9:55 AM 50.0 °F - 30.4 °F 47% 30.35 in 10.0 mi SSW 11.5 mph - N/A   Clear
10:15 AM 50.9 °F - 28.2 °F 42% 30.35 in 10.0 mi SSW 10.4 mph - N/A   Clear
10:35 AM 52.9 °F - 29.3 °F 40% 30.35 in 10.0 mi SSW 10.4 mph - N/A   Clear
10:55 AM 54.0 °F - 29.5 °F 39% 30.36 in 10.0 mi SSW 9.2 mph - N/A   Clear
11:15 AM 54.7 °F - 27.3 °F 35% 30.34 in 10.0 mi SSW 10.4 mph 17.3 mph N/A   Clear
11:35 AM 55.4 °F - 27.1 °F 34% 30.33 in 10.0 mi SSW 11.5 mph - N/A   Clear
11:55 AM 56.3 °F - 27.3 °F 33% 30.32 in 10.0 mi South 11.5 mph - N/A   Clear
12:15 PM 56.5 °F - 25.3 °F 30% 30.32 in 10.0 mi SW 11.5 mph - N/A   Clear
12:35 PM 56.8 °F - 25.3 °F 30% 30.30 in 10.0 mi South 11.5 mph 19.6 mph N/A   Clear
12:55 PM 57.4 °F - 24.6 °F 28% 30.30 in 10.0 mi South 12.7 mph 19.6 mph N/A   Clear
1:15 PM 57.6 °F - 23.9 °F 27% 30.30 in 10.0 mi SSW 13.8 mph 20.7 mph N/A   Clear
1:35 PM 57.9 °F - 22.8 °F 26% 30.29 in 10.0 mi SSW 12.7 mph 19.6 mph N/A   Clear
1:55 PM 57.9 °F - 23.4 °F 26% 30.28 in 10.0 mi South 13.8 mph - N/A   Clear
2:15 PM 57.2 °F - 23.0 °F 27% 30.28 in 10.0 mi South 16.1 mph 20.7 mph N/A   Clear
2:35 PM 57.2 °F - 23.5 °F 27% 30.27 in 10.0 mi SSW 16.1 mph 19.6 mph N/A   Clear
2:55 PM 56.5 °F - 22.3 °F 27% 30.26 in 10.0 mi SSW 13.8 mph - N/A   Clear
3:15 PM 56.7 °F - 21.9 °F 26% 30.26 in 10.0 mi South 10.4 mph - N/A   Clear
3:35 PM 56.3 °F - 22.3 °F 27% 30.26 in 10.0 mi South 12.7 mph - N/A   Clear
3:55 PM 55.4 °F - 23.7 °F 29% 30.26 in 10.0 mi South 10.4 mph - N/A   Clear
4:15 PM 54.0 °F - 22.8 °F 30% 30.26 in 10.0 mi South 9.2 mph - N/A   Clear
4:35 PM 52.5 °F - 23.4 °F 32% 30.26 in 10.0 mi South 6.9 mph - N/A   Clear
4:55 PM 49.3 °F - 24.8 °F 38% 30.26 in 10.0 mi South 6.9 mph - N/A   Clear
5:15 PM 48.2 °F - 23.4 °F 38% 30.26 in 10.0 mi South 5.8 mph - N/A   Clear
5:35 PM 46.0 °F 42.5 °F 24.6 °F 43% 30.25 in 10.0 mi South 6.9 mph - N/A   Clear
5:55 PM 44.8 °F 41.6 °F 25.3 °F 47% 30.25 in 10.0 mi SSE 5.8 mph - N/A   Clear
6:15 PM 43.9 °F 41.3 °F 25.7 °F 49% 30.26 in 10.0 mi SSE 4.6 mph - N/A   Clear
6:35 PM 43.5 °F 39.4 °F 25.5 °F 49% 30.26 in 10.0 mi South 6.9 mph - N/A   Clear
6:55 PM 41.9 °F 37.5 °F 25.7 °F 53% 30.26 in 10.0 mi SSE 6.9 mph - N/A   Clear
7:15 PM 41.2 °F 37.3 °F 25.7 °F 54% 30.26 in 10.0 mi SSE 5.8 mph - N/A   Clear
7:35 PM 42.6 °F 37.8 °F 26.6 °F 53% 30.26 in 10.0 mi SSE 8.1 mph - N/A   Clear
7:55 PM 43.7 °F 38.6 °F 27.5 °F 53% 30.26 in 10.0 mi South 9.2 mph - N/A   Clear
8:35 PM 43.7 °F 39.1 °F 28.2 °F 54% 30.26 in 10.0 mi SSE 8.1 mph - N/A   Clear
8:55 PM 44.1 °F 39.5 °F 28.4 °F 54% 30.26 in 10.0 mi SSE 8.1 mph - N/A   Clear
9:15 PM 43.9 °F 38.8 °F 28.4 °F 55% 30.26 in 10.0 mi South 9.2 mph - N/A   Clear
9:35 PM 44.6 °F 39.7 °F 28.0 °F 52% 30.26 in 10.0 mi South 9.2 mph - N/A   Clear
9:55 PM 43.9 °F 38.8 °F 28.6 °F 55% 30.26 in 10.0 mi South 9.2 mph - N/A   Clear
10:15 PM 43.7 °F 39.7 °F 28.4 °F 55% 30.26 in 10.0 mi South 6.9 mph - N/A   Clear
10:35 PM 43.3 °F 38.6 °F 28.4 °F 56% 30.26 in 10.0 mi South 8.1 mph - N/A   Clear
10:55 PM 43.3 °F 38.6 °F 28.8 °F 56% 30.26 in 10.0 mi South 8.1 mph - N/A   Clear
11:15 PM 43.5 °F 38.9 °F 28.8 °F 56% 30.26 in 10.0 mi South 8.1 mph - N/A   Clear
11:35 PM 42.8 °F 38.6 °F 29.3 °F 59% 30.26 in 10.0 mi South 6.9 mph - N/A   Clear
11:55 PM 41.9 °F 37.5 °F 29.3 °F 61% 30.26 in 10.0 mi South 6.9 mph - N/A   Clear